Location: Asheville, NC
(35.6000°N, 82.5500°W)
Time: 19:50:37
(UTC-04:00)

JUGNU - Pass Details

Date: 11 January 2018
Orbit: 836 x 864 km, 20.0° (Epoch: 26 May)

Event Time Altitude Azimuth Distance (km) Brightness Sun altitude
Rises 17:56:03 0° 243° (WSW) 3,406 ? -4.4°
Reaches altitude 10° 17:59:44 10° 221° (SW) 2,474 ? -5.1°
Maximum altitude 18:03:00 15° 188° (S) 2,135 ? -5.7°
Drops below altitude 10° 18:06:16 10° 154° (SSE) 2,480 ? -6.3°
Sets 18:09:59 0° 132° (SE) 3,418 ? -7.0°
